Date String (YYYY-MM-DD hh:mm:ss) UTC,Instrument flags,absolute air pressure of the measurement (hPa),sample flow rate (lpm),inlet stack bypass flow (lpm),air temperature of the measurement (°C),ambient temperature measured by the external sensor (°C),aerosol sample conditioner tube jacket temperature (°C),OPC LED temperature (°C),internal box temperature (°C),relative humidity of the measurement (%),span deviation,mass concentration of particles derived from Lorenz-Mie calculation of OPC scattering (μg/m³),mass concentration of particles derived from Lorenz-Mie calculation of OPC scattering (μg/m³),mass concentration of particles derived from Lorenz-Mie calculation of OPC scattering (μg/m³)
DateTimeUTC,F1_M11,P_M11,Q1_M11,Q2_M11,T1_M11,T2_M11,T3_M11,T4_M11,T5_M11,U1_M11,ZSPAN_M11,X0_M11,X2_M11,X1_M11
2024-03-30 21:00:00,SystemResetWarning,0820.9,5.00,000.00,024.2,023.7,000.0,032.6,026.1,22.1,0000.2,0012.75,0008.33,0007.80
2024-03-30 21:01:00,SystemResetWarning,0821.0,5.00,000.00,024.2,023.7,000.0,032.6,026.1,22.6,-000.4,0012.78,0008.36,0007.80
2024-03-30 21:02:00,SystemResetWarning,0821.0,5.00,000.00,024.2,023.7,000.0,032.6,026.1,22.5,-000.3,0012.75,0008.36,0007.80
2024-03-30 21:03:00,SystemResetWarning,0820.9,4.99,000.00,024.3,023.7,000.0,032.6,026.1,22.6,-000.1,0013.15,0008.40,0007.82
2024-03-30 21:04:00,SystemResetWarning,0820.9,5.00,000.00,024.3,023.7,000.0,032.7,026.1,22.9,0000.4,0012.85,0008.40,0007.84
2024-03-30 21:05:00,SystemResetWarning,0821.0,5.01,000.00,024.3,023.7,000.0,032.7,026.2,22.8,0000.6,0012.94,0008.44,0007.87
2024-03-30 21:06:00,SystemResetWarning,0821.0,5.01,000.00,024.3,023.7,000.0,032.7,026.2,22.3,0000.1,0013.25,0008.47,0007.91
2024-03-30 21:07:00,SystemResetWarning,0820.9,5.00,000.00,024.3,023.7,000.0,032.7,026.2,21.9,0000.6,0014.32,0008.47,0007.93
2024-03-30 21:08:00,SystemResetWarning,0820.8,5.00,000.00,024.3,023.7,000.0,032.7,026.2,22.0,0000.6,0015.08,0008.51,0007.96
2024-03-30 21:09:00,SystemResetWarning,0820.8,4.99,000.00,024.3,023.8,000.0,032.7,026.2,21.9,0000.7,0014.72,0008.53,0007.99
2024-03-30 21:10:00,SystemResetWarning,0820.9,4.99,000.00,024.3,023.8,000.0,032.7,026.2,21.9,0000.4,0015.05,0008.58,0008.02
2024-03-30 21:11:00,SystemResetWarning,0820.8,5.00,000.00,024.4,023.8,000.0,032.7,026.2,22.2,0001.0,0015.19,0008.61,0008.06
2024-03-30 21:12:00,SystemResetWarning,0820.8,5.00,000.00,024.4,023.8,000.0,032.8,026.3,22.2,0001.6,0015.64,0008.64,0008.08
2024-03-30 21:13:00,SystemResetWarning,0820.8,5.00,000.00,024.4,023.8,000.0,032.8,026.3,21.8,0001.8,0015.87,0008.67,0008.10
2024-03-30 21:14:00,SystemResetWarning,0820.7,5.00,000.00,024.4,023.8,000.0,032.8,026.3,22.0,0001.8,0015.50,0008.66,0008.10
2024-03-30 21:15:00,SystemResetWarning,0820.7,5.00,000.00,024.4,023.8,000.0,032.8,026.3,21.8,0001.4,0015.54,0008.70,0008.11
2024-03-30 21:16:00,SystemResetWarning,0820.7,5.01,000.00,024.4,023.8,000.0,032.8,026.3,21.5,0000.9,0015.09,0008.63,0008.08
2024-03-30 21:17:00,SystemResetWarning,0820.6,5.00,000.00,024.4,023.9,000.0,032.8,026.3,21.6,0000.7,0014.70,0008.60,0008.03
2024-03-30 21:18:00,SystemResetWarning,0820.6,5.00,000.00,024.4,023.9,000.0,032.8,026.3,21.4,0000.3,0013.60,0008.56,0007.98
2024-03-30 21:19:00,SystemResetWarning,0820.6,5.00,000.00,024.4,023.9,000.0,032.8,026.3,21.2,0000.4,0012.66,0008.50,0007.94
2024-03-30 21:20:00,SystemResetWarning,0820.6,5.00,000.00,024.5,023.9,000.0,032.8,026.3,21.2,0000.3,0012.68,0008.46,0007.90
2024-03-30 21:21:00,SystemResetWarning,0820.7,5.00,000.00,024.5,023.9,000.0,032.8,026.3,21.7,0000.5,0012.10,0008.38,0007.86
2024-03-30 21:22:00,SystemResetWarning,0820.6,5.00,000.00,024.5,023.9,000.0,032.9,026.4,21.5,0000.7,0012.14,0008.34,0007.81
2024-03-30 21:23:00,SystemResetWarning,0820.6,4.99,000.00,024.5,023.9,000.0,032.9,026.4,21.4,0000.2,0011.69,0008.29,0007.78
2024-03-30 21:24:00,SystemResetWarning,0820.6,5.00,000.00,024.5,024.0,000.0,032.9,026.4,21.4,0000.3,0011.17,0008.25,0007.76
2024-03-30 21:25:00,SystemResetWarning,0820.6,5.01,000.00,024.5,024.0,000.0,032.9,026.4,21.4,0000.0,0011.94,0008.20,0007.71
2024-03-30 21:26:00,SystemResetWarning,0820.6,5.01,000.00,024.5,024.0,000.0,032.9,026.4,21.4,-000.3,0012.40,0008.20,0007.69
2024-03-30 21:27:00,SystemResetWarning,0820.6,5.00,000.00,024.6,024.0,000.0,032.9,026.4,21.4,0000.3,0012.65,0008.21,0007.69
2024-03-30 21:28:00,SystemResetWarning,0820.6,4.99,000.00,024.6,024.0,000.0,032.9,026.4,21.6,0000.8,0012.67,0008.20,0007.70
2024-03-30 21:29:00,SystemResetWarning,0820.6,4.99,000.00,024.6,024.0,000.0,033.0,026.5,21.6,0000.0,0012.65,0008.19,0007.70
2024-03-30 21:30:00,SystemResetWarning,0820.6,4.99,000.00,024.6,024.0,000.0,033.0,026.5,21.8,0000.0,0012.67,0008.21,0007.70
2024-03-30 21:31:00,SystemResetWarning,0820.5,5.00,000.00,024.6,024.0,000.0,033.0,026.5,21.9,0000.0,0012.84,0008.25,0007.71
2024-03-30 21:32:00,SystemResetWarning,0820.5,5.01,000.00,024.6,024.0,000.0,033.0,026.5,21.8,0000.0,0013.37,0008.36,0007.75
2024-03-30 21:33:00,SystemResetWarning,0820.5,5.01,000.00,024.6,024.1,000.0,033.0,026.5,21.5,0000.0,0013.74,0008.40,0007.78
2024-03-30 21:34:00,SystemResetWarning,0820.6,5.00,000.00,024.6,024.1,000.0,033.0,026.5,21.6,0000.0,0014.00,0008.44,0007.82
2024-03-30 21:35:00,SystemResetWarning,0820.6,4.99,000.00,024.6,024.1,000.0,033.0,026.5,21.4,0000.0,0014.27,0008.46,0007.85
2024-03-30 21:36:00,SystemResetWarning,0820.7,4.99,000.00,024.7,024.1,000.0,033.0,026.5,21.4,0000.0,0013.97,0008.53,0007.91
2024-03-30 21:37:00,SystemResetWarning,0820.6,5.00,000.00,024.7,024.1,000.0,033.1,026.5,21.6,0000.0,0013.49,0008.55,0007.97
2024-03-30 21:38:00,SystemResetWarning,0820.6,5.00,000.00,024.7,024.1,000.0,033.1,026.6,21.5,0000.8,0013.36,0008.60,0008.02
2024-03-30 21:39:00,SystemResetWarning,0820.6,5.00,000.00,024.7,024.1,000.0,033.1,026.6,21.5,0000.6,0013.34,0008.65,0008.07
2024-03-30 21:40:00,SystemResetWarning,0820.7,5.00,000.00,024.7,024.1,000.0,033.1,026.6,21.5,0000.6,0013.61,0008.74,0008.13
2024-03-30 21:41:00,SystemResetWarning,0820.7,5.00,000.00,024.7,024.1,000.0,033.1,026.6,21.6,0000.2,0013.93,0008.84,0008.19
2024-03-30 21:42:00,SystemResetWarning,0820.7,5.00,000.00,024.7,024.1,000.0,033.1,026.6,21.5,0000.2,0013.91,0008.84,0008.23
2024-03-30 21:43:00,SystemResetWarning,0820.9,5.00,000.00,024.7,024.1,000.0,033.1,026.6,21.4,0000.3,0013.52,0008.82,0008.24
2024-03-30 21:44:00,SystemResetWarning,0820.7,5.01,000.00,024.7,024.2,000.0,033.1,026.6,21.5,0000.3,0012.95,0008.81,0008.26
2024-03-30 21:45:00,SystemResetWarning,0820.5,5.00,000.00,024.8,024.2,000.0,033.2,026.6,21.6,-000.2,0012.67,0008.81,0008.27
2024-03-30 21:46:00,SystemResetWarning,0820.6,5.00,000.00,024.8,024.2,000.0,033.2,026.6,21.5,-000.5,0012.46,0008.84,0008.28
2024-03-30 21:47:00,SystemResetWarning,0820.7,4.99,000.00,024.8,024.2,000.0,033.2,026.6,21.8,-000.2,0011.99,0008.84,0008.28
2024-03-30 21:48:00,SystemResetWarning,0820.9,4.99,000.00,024.8,024.2,000.0,033.2,026.6,21.7,0000.6,0012.17,0008.86,0008.30
2024-03-30 21:49:00,SystemResetWarning,0820.8,5.01,000.00,024.8,024.2,000.0,033.2,026.7,21.8,0000.6,0012.05,0008.90,0008.34
2024-03-30 21:50:00,SystemResetWarning,0820.9,5.01,000.00,024.8,024.2,000.0,033.2,026.7,22.1,0000.4,0012.41,0008.93,0008.37
2024-03-30 21:51:00,SystemResetWarning,0820.7,5.00,000.00,024.8,024.2,000.0,033.2,026.7,22.2,0000.5,0012.58,0008.93,0008.40
2024-03-30 21:52:00,SystemResetWarning,0820.5,4.99,000.00,024.8,024.2,000.0,033.2,026.7,21.7,0000.4,0013.20,0008.95,0008.44
2024-03-30 21:53:00,SystemResetWarning,0820.5,5.00,000.00,024.8,024.3,000.0,033.2,026.7,21.6,0000.1,0013.32,0009.04,0008.50
2024-03-30 21:54:00,SystemResetWarning,0820.4,5.00,000.00,024.9,024.3,000.0,033.3,026.7,21.5,0000.1,0013.30,0009.07,0008.56
2024-03-30 21:55:00,SystemResetWarning,0820.4,5.00,000.00,024.9,024.3,000.0,033.3,026.7,21.4,0000.3,0013.45,0009.14,0008.63
2024-03-30 21:56:00,SystemResetWarning,0820.4,5.00,000.00,024.9,024.3,000.0,033.3,026.7,21.5,0000.9,0013.56,0009.25,0008.70
2024-03-30 21:57:00,SystemResetWarning,0820.3,5.00,000.00,024.9,024.3,000.0,033.3,026.8,21.4,0001.5,0013.60,0009.34,0008.78
2024-03-30 21:58:00,SystemResetWarning,0820.4,4.99,000.00,024.9,024.3,000.0,033.3,026.8,21.4,0001.6,0013.64,0009.41,0008.84
2024-03-30 21:59:00,SystemResetWarning,0820.4,4.99,000.00,024.9,024.3,000.0,033.3,026.8,21.3,0001.5,0013.62,0009.48,0008.88
